Flag for Canada Weather past 2 weeks in Vaughan, Ontario, Canada

Now
46 °F

Low clouds.


Feels Like: 44 °F
Forecast: 36 / 46 °F
Wind: 5 mph from Southeast

Location: Toronto Buttonville

Current Time: Dec 24, 2014 at 8:03:02 PM

Latest Report: Dec 24, 2014 at 7:00 PM


Visibility: 12 mi

Pressure: 29.31 "Hg

Humidity: 100%

Dew point: 46 °F

Location of VaughanLocation

Historic Weather in Vaughan — Graph

°F

Vaughan temperature yesterday

Maximum temperature yesterday: 41 °F (at 7:00 PM)
Minimum temperature yesterday: 30 °F (at 3:00 AM)
Average temperature yesterday: 37 °F

Past Weeks' High & Low Weather Summary

 TemperatureHumidityPressure
High46 °F (Dec 24, 1:00 PM)100% (Dec 9, 9:00 PM)30.35 "Hg (Dec 9, 9:00 PM)
Low16 °F (Dec 20, 8:00 AM)51% (Dec 20, 1:00 PM)29.36 "Hg (Dec 24, 6:00 PM)
Average32 °F86%30.03 "Hg
* Reported Dec 9 6:00 PM — Dec 24 6:00 PM, Vaughan, Weather by CustomWeather, © 2014

Note: Actual official high and low records may vary slightly from our data, if they occured in-between our weather recording intervals... More about our weather records

Advertising

Vaughan weather history for previous 24 hours

 ConditionsComfort  
Time TempWeatherWind HumidityBarometerVisibility
6:00 PM
Dec 24
46 °FMostly cloudy.6 mph100%29.36 "Hg8 mi
5:00 PM46 °FMostly cloudy.6 mph100%29.37 "Hg8 mi
4:00 PM46 °FFog.7 mph100%29.42 "Hg6 mi
3:00 PM45 °FFog.8 mph100%29.46 "Hg1 mi
2:00 PM46 °FFog.6 mph100%29.49 "Hg1 mi
1:00 PM46 °FFog.3 mph100%29.54 "Hg1 mi
12:00 PM45 °FFog.5 mph100%29.59 "Hg1 mi
11:00 AM45 °FFog.3 mph100%29.62 "Hg1 mi
10:00 AM45 °FLight rain. Fog.2 mph100%29.66 "Hg1 mi
9:00 AM43 °FLight rain. Fog.2 mph100%29.68 "Hg1 mi
8:00 AM43 °FLight rain. Fog.2 mph100%29.68 "Hg0 mi
7:00 AM43 °FLight rain. Fog.No wind100%29.73 "Hg0 mi
6:00 AM43 °FFog.5 mph100%29.72 "Hg1 mi
5:00 AM43 °FFog.12 mph100%29.73 "Hg1 mi
4:00 AM43 °FLight rain. Fog.2 mph100%29.80 "Hg2 mi
3:00 AM43 °FLight rain. Fog.5 mph100%29.83 "Hg2 mi
2:00 AM43 °FDrizzle. Fog.3 mph100%29.84 "Hg2 mi
1:00 AM43 °FDrizzle. Fog.3 mph100%29.84 "Hg1 mi
12:00 AM41 °FFog.6 mph100%29.86 "Hg1 mi
11:00 PM
Dec 23
41 °FFog.2 mph100%29.89 "Hg1 mi
10:00 PM41 °FFog.2 mph100%29.89 "Hg1 mi
9:45 PMN/AFog.5 mphN/AN/A1 mi
9:00 PM41 °FFog.No wind100%29.91 "Hg1 mi
8:00 PM41 °FFog.6 mph100%29.93 "Hg1 mi
Weather by CustomWeather, © 2014

See weather overviewHow to use our weather pages